Regional Weather Roundup
Issued by NWS Charleston, SC

Current Version | Previous Version | Graphics & Text | Print | Product List | Glossary On
Versions: 1 2 3 4 5 6 7 8 9 10 11 12 13 14 15 16 17 18 19 20 21 22 23 24 25 26 27 28 29 30 31 32 33 34 35 36 37 38 39 40 41 42 43 44 45 46 47 48 49 50
000 ASUS42 KCHS 231528 RWRCHS REGIONAL WEATHER ROUNDUP NATIONAL WEATHER SERVICE CHARLESTON SC 1100 AM EDT SAT JUL 23 2016 NOTE: "FAIR" INDICATES FEW OR NO CLOUDS BELOW 12,000 FEET WITH NO SIGNIFICANT WEATHER AND/OR OBSTRUCTIONS TO VISIBILITY. NOT ALL STATIONS ARE QUALITY CONTROLLED. USE DATA WITH CAUTION... ESPECIALLY DEWPOINT OBSERVATIONS. SCZ027-030-031-034>040-042>050-231600- ...SOUTHEAST SOUTH CAROLINA... CITY SKY/WX TMP DP RH WIND PRES REMARKS N CHARLESTON MOSUNNY 90 73 57 SW6 30.04R HX 98 WATERFRONT PRK N/A 86 74 67 VRB3 30.01S HX 94 MOUNT PLEASANT FAIR 90 73 58 CALM 30.04S HX 98 JOHNS ISLAND FAIR 91 75 59 W5 30.04R HX 102 PINOPOLIS N/A 84 75 74 CALM 29.96R HX 92 MONCKS CORNER FAIR 86 72 62 CALM 30.04R HX 92 SUMMERVILLE FAIR 90 75 62 CALM 30.05R HX 100 BEAUFORT MCAS SUNNY 92 72 51 W7 30.04R HX 99 BEAUFORT ARPT FAIR 88 75 66 SW5 30.04R HX 97 HILTON HEAD IS SUNNY 93 75 55 S7 30.05R HX 104 WALTERBORO SUNNY 91 73 55 CALM 30.05S HX 100 ALLENDALE FAIR 90 75 62 S5 30.04R HX 100 ...SOUTHERN MIDLANDS AND PEE DEE... CITY SKY/WX TMP DP RH WIND PRES REMARKS GEORGETOWN FAIR 84 73 70 S7 30.05R HX 91 KINGSTREE FAIR 88 73 62 W3 30.03S HX 96 ORANGEBURG SUNNY 89 76 65 VRB3 30.04R HX 100 BARNWELL NOT AVBL AIKEN FAIR 90 70 51 SW7 30.08R HX 95 MANNING FAIR 88 73 62 CALM 30.03R HX 96 COLUMBIA MOSUNNY 91 71 51 SW9 30.02R HX 97 SUMTER SUNNY 88 74 63 SW5 30.00R HAZE HX 97 FLORENCE SUNNY 88 74 63 W3 30.02S HX 96 MYRTLE BEACH PTSUNNY 82 70 65 S17 30.06S N MYRTLE BEACH PTSUNNY 82 75 79 S13 30.04S $$ GAZ063-065-086>088-099>101-113>116-118-119-134>141-150-231600- ...SOUTHEAST GEORGIA... CITY SKY/WX TMP DP RH WIND PRES REMARKS SAVANNAH ARPT MOSUNNY 90 73 57 VRB7 30.04S HX 98 HUNTER AAF SUNNY 88 79 74 SW6 30.02R HX 103 FORT STEWART SUNNY 88 74 61 SW2 30.02S HX 97 STATESBORO SUNNY 89 77 67 N5 30.05S HX 102 SYLVANIA NOT AVBL CLAXTON FAIR 90 78 67 CALM 30.05S HX 103 ...CSRA...CENTRAL AND FAR SOUTHEAST GEORGIA... CITY SKY/WX TMP DP RH WIND PRES REMARKS THOMSON SUNNY 92 76 59 SW5 30.08S HX 105 AUGUSTA-BUSH SUNNY 90 72 55 S3 30.03R HX 97 AUGUSTA-DANIEL SUNNY 90 72 55 VRB6 30.05R HX 97 SWAINSBORO FAIR 90 72 55 CALM 30.06S HX 96 VIDALIA SUNNY 90 72 55 S5 30.06R HX 96 EASTMAN FAIR 90 62 38 CALM 30.08R HX 90 HAZLEHURST FAIR 92 76 59 CALM 30.05S HX 104 ALMA SUNNY 87 74 64 CALM 30.06R HX 95 WAYCROSS SUNNY 91 76 62 SW5 30.06S HX 102 JESUP FAIR 90 79 70 W6 30.06S HX 105 BAXLEY FAIR 88 81 79 W3 30.06R HX 105 BRUNSWICK SUNNY 90 73 58 W6 30.06S HX 98 SAINT SIMONS SUNNY 87 72 60 SW10 30.05S HX 93 $$ SCZ027-028-034-036>038-045-046-048>050-GAZ119-141-231600- ...LAKE AND SUPPLEMENTAL COASTAL OBSERVATIONS... STATION/POSITION TIME TEMP WIND PRES WAVE SWELL AIR SEA DIR/SP/G HT/PER HT/PER/DIR (UTC) (F) (DEG/KT/KT) (MB) (FT/S) (FT/S/D) WINYAH BAY 1445 83 210/ 8 1016.0S LAKE MURRAY 1500 87 180/ 6/ 9 1015.9R ACE BASIN NERRS 1400 86 CALM 1017.0S FORT PULASKI 1500 86 87 220/ 5/ 8 1017.8R SAPELO ISLAND 1500 89 220/ 6 1018.0R $$ ANZ835-935-AMZ111-154-330-350-352-354-370-450-454-472-231600- ...C-MAN AND BUOY OBSERVATIONS... STATION/POSITION TIME TEMP WIND PRES WAVE SWELL AIR SEA DIR/SP/G HT/PER HT/PER/DIR (UTC) (F) (DEG/KT/KT) (MB) (FT/S) (FT/S/D) BUOY 41004 1450 81 86 310/ 4/ 4 1017.2R 2/ 8 2/100/ 8 BUOY 41008 1450 83 86 220/ 8/ 10 1017.6R 2/ 9 2/ 80/ 9 FOLLY BEACH CMAN 1500 86 190/ 5/ 7 1017.5R CAPERS NEARSHORE 1508 84 83 170/ 4/ 6 1017.3R FRIPP NEARSHORE 1508 84 85 230/ 8/ 10 1016.8R STATION/POSITION TIME TEMP WIND PRES WAVE SWELL AIR SEA DIR/SP/G HT/PER HT/PER/DIR (UTC) (F) (DEG/KT/KT) (MB) (FT/S) (FT/S/D) 5E ST. MARYS GA 1501 87 N/A 2/ 8 FRYING PAN BUOY 1500 81 85 270/ 12/ 16 1017.1S BUOY 41025 1450 84 86 220/ 10/ 12 1016.8R 2/ 8 2/120/ 8 CAPE LOOKOUT NC 1500 85 230/ 7/ 10 1016.7R BUOY 41002 1450 82 86 50/ 2/ 4 1017.4R 2/ 8 2/100/ 8 BUOY 41010 1420 84 87 20/ 6/ 6 1017.4R ST AUGUSTINE FL 1500 83 86 70/ 5/ 6 1018.7R $$

USA.gov is the U.S. government's official web portal to all federal, state and local government web resources and services.